User: anonymous   Login
Location: Newark
(7.0858°N, 171.3717°E)
Time: 15:55:08
(UTC+00:00)
Language:

Tiros 1 - Orbit

View from above orbital plane
View from above orbital plane
View from above satellite
View from above satellite

Ground track
Ground track

The orbit data is extracted from the following two-line orbital elements,

1    29U 60002B   21132.21903664 -.00000088  00000-0  17837-4 0  9996
2    29  48.3788 196.9961 0024342 200.4737 159.5201 14.74426789267178
Epoch (UTC): 12 May 2021 05:15:24
Eccentricity: 0.0024342
inclination: 48.3788°
perigee height: 630 km
apogee height: 664 km
right ascension of ascending node: 196.9961°
argument of perigee: 200.4737°
revolutions per day: 14.74426789
mean anomaly at epoch: 159.5201°
orbit number at epoch: 26717

The dashed part of the orbit path shows where the satellite is in the earth's shadow,  

DLR